Time,TemperatureF,DewpointF,PressureIn,WindDirection,WindDirectionDegrees,WindSpeedMPH,WindSpeedGustMPH,Humidity,HourlyPrecipIn,Conditions,Clouds,dailyrainin,SoftwareType,DateUTC
2013-11-05 00:00:00,35.6,28.8,30.62,SE,135,0.0,0.0,76,0.00,CLR,,0.00,WeatherDisplay:10.37,2013-11-05 05:00:00,
2013-11-05 00:01:00,35.6,28.8,30.62,SE,135,0.0,0.0,76,0.00,CLR,,0.00,WeatherDisplay:10.37,2013-11-05 05:01:00,
2013-11-05 00:06:00,35.4,28.6,30.62,SE,135,0.0,0.0,76,0.00,CLR,,0.00,WeatherDisplay:10.37,2013-11-05 05:06:00,
2013-11-05 00:11:00,35.6,28.8,30.62,SE,135,0.0,0.0,76,0.00,CLR,,0.00,WeatherDisplay:10.37,2013-11-05 05:11:00,
2013-11-05 00:16:00,35.4,28.6,30.62,SE,135,0.0,0.0,76,0.00,CLR,,0.00,WeatherDisplay:10.37,2013-11-05 05:16:00,
2013-11-05 00:21:00,35.6,28.8,30.62,SE,135,0.0,0.0,76,0.00,CLR,,0.00,WeatherDisplay:10.37,2013-11-05 05:21:00,
2013-11-05 00:26:00,35.8,29.3,30.62,SE,135,0.0,0.0,77,0.00,CLR,,0.00,WeatherDisplay:10.37,2013-11-05 05:26:00,
2013-11-05 00:32:00,35.8,29.3,30.62,SE,135,0.0,0.0,77,0.00,CLR,,0.00,WeatherDisplay:10.37,2013-11-05 05:32:00,
2013-11-05 00:37:00,36.0,29.4,30.62,SE,135,0.0,0.0,77,0.00,CLR,,0.00,WeatherDisplay:10.37,2013-11-05 05:37:00,
2013-11-05 00:42:00,36.1,29.6,30.62,SE,135,0.0,0.0,77,0.00,CLR,,0.00,WeatherDisplay:10.37,2013-11-05 05:42:00,
2013-11-05 00:47:00,36.1,29.6,30.62,SE,135,0.0,0.0,77,0.00,CLR,,0.00,WeatherDisplay:10.37,2013-11-05 05:47:00,
2013-11-05 00:52:00,36.1,29.6,30.62,SE,135,0.0,0.0,77,0.00,CLR,,0.00,WeatherDisplay:10.37,2013-11-05 05:52:00,
2013-11-05 00:57:00,36.3,30.1,30.62,SE,135,0.0,0.0,78,0.00,CLR,,0.00,WeatherDisplay:10.37,2013-11-05 05:57:00,
2013-11-05 01:02:00,36.3,30.1,30.61,SE,135,0.0,0.0,78,0.00,CLR,,0.00,WeatherDisplay:10.37,2013-11-05 06:02:00,
2013-11-05 01:07:00,36.3,30.1,30.61,SE,135,0.0,0.0,78,0.00,CLR,,0.00,WeatherDisplay:10.37,2013-11-05 06:07:00,
2013-11-05 01:12:00,36.5,30.3,30.62,SE,135,0.0,0.0,78,0.00,CLR,,0.00,WeatherDisplay:10.37,2013-11-05 06:12:00,
2013-11-05 01:17:00,36.7,30.5,30.62,SE,135,0.0,0.0,78,0.00,CLR,,0.00,WeatherDisplay:10.37,2013-11-05 06:17:00,
2013-11-05 01:22:00,36.7,30.5,30.62,NNW,338,0.0,0.0,78,0.00,CLR,,0.00,WeatherDisplay:10.37,2013-11-05 06:22:00,
2013-11-05 01:27:00,36.9,30.6,30.62,NNE,22,0.2,0.2,78,0.00,CLR,,0.00,WeatherDisplay:10.37,2013-11-05 06:27:00,
2013-11-05 01:32:00,36.9,30.6,30.61,NNE,22,0.0,0.0,78,0.00,CLR,,0.00,WeatherDisplay:10.37,2013-11-05 06:32:00,
2013-11-05 01:37:00,36.9,30.6,30.61,North,0,0.0,0.0,78,0.00,CLR,,0.00,WeatherDisplay:10.37,2013-11-05 06:37:00,
2013-11-05 01:42:00,37.0,30.8,30.61,North,0,0.0,0.0,78,0.00,CLR,,0.00,WeatherDisplay:10.37,2013-11-05 06:42:00,
2013-11-05 01:47:00,37.0,30.8,30.62,North,0,0.0,0.0,78,0.00,CLR,,0.00,WeatherDisplay:10.37,2013-11-05 06:47:00,
2013-11-05 01:52:00,37.0,30.8,30.61,North,0,0.0,0.0,78,0.00,CLR,,0.00,WeatherDisplay:10.37,2013-11-05 06:52:00,
2013-11-05 01:57:00,37.2,31.0,30.61,North,0,0.0,0.0,78,0.00,CLR,,0.00,WeatherDisplay:10.37,2013-11-05 06:57:00,
2013-11-05 02:03:00,37.2,31.0,30.61,North,0,0.0,0.0,78,0.00,CLR,,0.00,WeatherDisplay:10.37,2013-11-05 07:03:00,
2013-11-05 02:08:00,37.2,31.0,30.61,North,0,0.0,0.0,78,0.00,CLR,,0.00,WeatherDisplay:10.37,2013-11-05 07:08:00,
2013-11-05 02:13:00,37.4,31.2,30.61,North,0,0.0,0.0,78,0.00,CLR,,0.00,WeatherDisplay:10.37,2013-11-05 07:13:00,
2013-11-05 02:18:00,37.4,31.2,30.60,North,0,0.0,0.0,78,0.00,CLR,,0.00,WeatherDisplay:10.37,2013-11-05 07:18:00,
2013-11-05 02:23:00,37.6,31.3,30.60,North,0,0.0,0.0,78,0.00,CLR,,0.00,WeatherDisplay:10.37,2013-11-05 07:23:00,
2013-11-05 02:28:00,37.6,31.3,30.60,North,0,0.0,0.0,78,0.00,CLR,,0.00,WeatherDisplay:10.37,2013-11-05 07:28:00,
2013-11-05 02:33:00,37.6,31.3,30.60,North,0,0.0,0.0,78,0.00,CLR,,0.00,WeatherDisplay:10.37,2013-11-05 07:33:00,
2013-11-05 02:38:00,37.6,31.3,30.60,North,0,0.0,0.0,78,0.00,CLR,,0.00,WeatherDisplay:10.37,2013-11-05 07:38:00,
2013-11-05 02:43:00,37.8,31.5,30.61,North,0,0.0,0.0,78,0.00,CLR,,0.00,WeatherDisplay:10.37,2013-11-05 07:43:00,
2013-11-05 02:48:00,37.6,31.3,30.61,North,0,0.0,0.0,78,0.00,CLR,,0.00,WeatherDisplay:10.37,2013-11-05 07:48:00,
2013-11-05 02:53:00,37.6,31.7,30.61,North,0,0.0,0.0,79,0.00,CLR,,0.00,WeatherDisplay:10.37,2013-11-05 07:53:00,
2013-11-05 02:58:00,37.6,31.7,30.61,North,0,0.0,0.0,79,0.00,CLR,,0.00,WeatherDisplay:10.37,2013-11-05 07:58:00,
2013-11-05 03:03:00,37.8,31.8,30.61,North,0,0.0,0.0,79,0.00,CLR,,0.00,WeatherDisplay:10.37,2013-11-05 08:03:00,
2013-11-05 03:09:00,37.8,31.8,30.61,North,0,0.0,0.0,79,0.00,CLR,,0.00,WeatherDisplay:10.37,2013-11-05 08:09:00,
2013-11-05 03:14:00,37.8,31.8,30.61,North,0,0.0,0.0,79,0.00,CLR,,0.00,WeatherDisplay:10.37,2013-11-05 08:14:00,
2013-11-05 03:19:00,37.8,31.8,30.62,North,0,0.0,0.0,79,0.00,CLR,,0.00,WeatherDisplay:10.37,2013-11-05 08:19:00,
2013-11-05 03:24:00,37.8,31.8,30.62,North,0,0.0,0.0,79,0.00,CLR,,0.00,WeatherDisplay:10.37,2013-11-05 08:24:00,
2013-11-05 03:29:00,37.8,31.8,30.62,North,0,0.0,0.0,79,0.00,CLR,,0.00,WeatherDisplay:10.37,2013-11-05 08:29:00,
2013-11-05 03:34:00,37.9,32.0,30.61,North,0,0.0,0.0,79,0.00,CLR,,0.00,WeatherDisplay:10.37,2013-11-05 08:34:00,
2013-11-05 03:39:00,37.9,31.7,30.62,North,0,0.2,0.0,78,0.00,CLR,,0.00,WeatherDisplay:10.37,2013-11-05 08:39:00,
2013-11-05 03:44:00,37.9,31.7,30.62,NW,315,0.0,0.0,78,0.00,CLR,,0.00,WeatherDisplay:10.37,2013-11-05 08:44:00,
2013-11-05 03:49:00,37.9,31.7,30.62,NW,315,0.0,0.0,78,0.00,CLR,,0.00,WeatherDisplay:10.37,2013-11-05 08:49:00,
2013-11-05 03:54:00,38.1,31.9,30.62,NW,315,0.0,0.0,78,0.00,CLR,,0.00,WeatherDisplay:10.37,2013-11-05 08:54:00,
2013-11-05 03:59:00,38.1,31.9,30.62,NW,315,0.0,0.0,78,0.00,CLR,,0.00,WeatherDisplay:10.37,2013-11-05 08:59:00,
2013-11-05 04:04:00,38.1,31.9,30.63,NW,315,0.0,0.0,78,0.00,CLR,,0.00,WeatherDisplay:10.37,2013-11-05 09:04:00,
2013-11-05 04:09:00,38.1,31.9,30.62,NW,315,0.0,0.0,78,0.00,CLR,,0.00,WeatherDisplay:10.37,2013-11-05 09:09:00,
2013-11-05 04:14:00,37.9,31.7,30.62,NW,315,0.0,0.0,78,0.00,CLR,,0.00,WeatherDisplay:10.37,2013-11-05 09:14:00,
2013-11-05 04:19:00,38.1,31.9,30.62,NNE,22,0.0,0.0,78,0.00,CLR,,0.00,WeatherDisplay:10.37,2013-11-05 09:19:00,
2013-11-05 04:24:00,37.9,31.7,30.62,West,270,0.0,0.0,78,0.00,CLR,,0.00,WeatherDisplay:10.37,2013-11-05 09:24:00,
2013-11-05 04:29:00,37.9,31.7,30.62,West,270,0.0,0.0,78,0.00,CLR,,0.00,WeatherDisplay:10.37,2013-11-05 09:29:00,
2013-11-05 04:34:00,38.1,31.9,30.61,West,270,0.0,0.0,78,0.00,CLR,,0.00,WeatherDisplay:10.37,2013-11-05 09:34:00,
2013-11-05 04:39:00,37.9,31.7,30.61,West,270,0.0,0.0,78,0.00,CLR,,0.00,WeatherDisplay:10.37,2013-11-05 09:39:00,
2013-11-05 04:44:00,37.8,31.5,30.61,West,270,0.0,0.0,78,0.00,CLR,,0.00,WeatherDisplay:10.37,2013-11-05 09:44:00,
2013-11-05 04:49:00,37.8,31.5,30.61,SSW,202,0.2,0.2,78,0.00,CLR,,0.00,WeatherDisplay:10.37,2013-11-05 09:49:00,
2013-11-05 04:54:00,37.6,31.3,30.60,SSW,202,0.0,0.0,78,0.00,CLR,,0.00,WeatherDisplay:10.37,2013-11-05 09:54:00,
2013-11-05 04:59:00,37.4,31.2,30.60,North,0,0.2,0.2,78,0.00,CLR,,0.00,WeatherDisplay:10.37,2013-11-05 09:59:00,
2013-11-05 05:04:00,37.0,30.8,30.60,NW,315,0.0,0.0,78,0.00,CLR,,0.00,WeatherDisplay:10.37,2013-11-05 10:04:00,
2013-11-05 05:09:00,36.9,30.6,30.60,NW,315,0.0,0.0,78,0.00,CLR,,0.00,WeatherDisplay:10.37,2013-11-05 10:09:00,
2013-11-05 05:14:00,36.7,30.5,30.61,North,0,0.0,0.0,78,0.00,CLR,,0.00,WeatherDisplay:10.37,2013-11-05 10:14:00,
2013-11-05 05:19:00,36.5,30.3,30.61,NNW,338,0.0,0.0,78,0.00,CLR,,0.00,WeatherDisplay:10.37,2013-11-05 10:19:00,
2013-11-05 05:24:00,36.3,30.1,30.60,NW,315,0.0,0.0,78,0.00,CLR,,0.00,WeatherDisplay:10.37,2013-11-05 10:24:00,
2013-11-05 05:29:00,36.0,29.8,30.61,NW,315,0.0,0.0,78,0.00,CLR,,0.00,WeatherDisplay:10.37,2013-11-05 10:29:00,
2013-11-05 05:34:00,35.8,29.6,30.61,NW,315,0.0,0.0,78,0.00,CLR,,0.00,WeatherDisplay:10.37,2013-11-05 10:34:00,
2013-11-05 05:39:00,35.8,29.9,30.61,NW,315,0.0,0.0,79,0.00,CLR,,0.00,WeatherDisplay:10.37,2013-11-05 10:39:00,
2013-11-05 05:44:00,35.8,29.9,30.61,NW,315,0.0,0.0,79,0.00,CLR,,0.00,WeatherDisplay:10.37,2013-11-05 10:44:00,
2013-11-05 05:49:00,35.8,29.9,30.61,NW,315,0.0,0.0,79,0.00,CLR,,0.00,WeatherDisplay:10.37,2013-11-05 10:49:00,
2013-11-05 05:54:00,35.8,30.2,30.62,NW,315,0.0,0.0,80,0.00,CLR,,0.00,WeatherDisplay:10.37,2013-11-05 10:54:00,
2013-11-05 05:59:00,35.8,30.2,30.62,WNW,292,0.0,1.2,80,0.00,CLR,,0.00,WeatherDisplay:10.37,2013-11-05 10:59:00,
2013-11-05 06:04:00,36.0,30.4,30.62,WNW,292,0.0,0.0,80,0.00,CLR,,0.00,WeatherDisplay:10.37,2013-11-05 11:04:00,
2013-11-05 06:09:00,36.0,30.4,30.62,NNW,338,0.0,0.0,80,0.00,CLR,,0.00,WeatherDisplay:10.37,2013-11-05 11:09:00,
2013-11-05 06:14:00,36.0,30.4,30.61,NNW,338,0.0,0.0,80,0.00,CLR,,0.00,WeatherDisplay:10.37,2013-11-05 11:14:00,
2013-11-05 06:19:00,35.8,30.2,30.61,NNW,338,0.0,0.0,80,0.00,CLR,,0.00,WeatherDisplay:10.37,2013-11-05 11:19:00,
2013-11-05 06:24:00,36.0,30.4,30.61,NW,315,0.0,0.0,80,0.00,CLR,,0.00,WeatherDisplay:10.37,2013-11-05 11:24:00,
2013-11-05 06:29:00,36.1,30.6,30.62,NW,315,0.0,0.0,80,0.00,CLR,,0.00,WeatherDisplay:10.37,2013-11-05 11:29:00,
2013-11-05 06:34:00,36.1,30.6,30.62,WNW,292,0.0,0.0,80,0.00,CLR,,0.00,WeatherDisplay:10.37,2013-11-05 11:34:00,
2013-11-05 06:39:00,36.3,30.7,30.62,WNW,292,0.0,0.0,80,0.00,CLR,,0.00,WeatherDisplay:10.37,2013-11-05 11:39:00,
2013-11-05 06:44:00,36.5,30.9,30.62,WNW,292,0.0,0.0,80,0.00,CLR,,0.00,WeatherDisplay:10.37,2013-11-05 11:44:00,
2013-11-05 06:49:00,36.7,31.1,30.62,WNW,292,0.0,0.0,80,0.00,CLR,,0.00,WeatherDisplay:10.37,2013-11-05 11:49:00,
2013-11-05 06:54:00,36.7,31.1,30.62,NW,315,0.0,0.0,80,0.00,CLR,,0.00,WeatherDisplay:10.37,2013-11-05 11:54:00,
2013-11-05 06:59:00,36.7,31.1,30.62,NW,315,0.0,0.0,80,0.00,CLR,,0.00,WeatherDisplay:10.37,2013-11-05 11:59:00,
2013-11-05 07:04:00,36.9,31.3,30.62,North,0,0.0,0.0,80,0.00,CLR,,0.00,WeatherDisplay:10.37,2013-11-05 12:04:00,
2013-11-05 07:09:00,36.9,31.3,30.62,North,0,0.0,0.0,80,0.00,CLR,,0.00,WeatherDisplay:10.37,2013-11-05 12:09:00,
2013-11-05 07:14:00,36.9,31.3,30.62,NW,315,0.0,0.0,80,0.00,CLR,,0.00,WeatherDisplay:10.37,2013-11-05 12:14:00,
2013-11-05 07:19:00,36.9,31.3,30.62,ENE,68,0.0,1.2,80,0.00,CLR,,0.00,WeatherDisplay:10.37,2013-11-05 12:19:00,
2013-11-05 07:24:00,36.9,31.3,30.62,NNW,338,0.5,0.5,80,0.00,CLR,,0.00,WeatherDisplay:10.37,2013-11-05 12:24:00,
2013-11-05 07:29:00,37.0,31.4,30.62,North,0,0.0,0.0,80,0.00,CLR,,0.00,WeatherDisplay:10.37,2013-11-05 12:29:00,
2013-11-05 07:34:00,37.0,31.4,30.62,North,0,0.2,1.2,80,0.00,CLR,,0.00,WeatherDisplay:10.37,2013-11-05 12:34:00,
2013-11-05 07:39:00,37.2,31.3,30.62,NW,315,0.2,2.3,79,0.00,CLR,,0.00,WeatherDisplay:10.37,2013-11-05 12:39:00,
2013-11-05 07:44:00,37.2,31.3,30.62,NW,315,0.7,1.2,79,0.00,CLR,,0.00,WeatherDisplay:10.37,2013-11-05 12:44:00,
2013-11-05 07:49:00,37.6,31.7,30.62,NNW,338,0.2,1.2,79,0.00,CLR,,0.00,WeatherDisplay:10.37,2013-11-05 12:49:00,
2013-11-05 07:54:00,37.9,32.0,30.62,NW,315,0.5,1.2,79,0.00,CLR,,0.00,WeatherDisplay:10.37,2013-11-05 12:54:00,
2013-11-05 07:59:00,38.3,32.0,30.62,NW,315,1.6,1.6,78,0.00,CLR,,0.00,WeatherDisplay:10.37,2013-11-05 12:59:00,
2013-11-05 08:04:00,38.7,32.7,30.62,North,0,0.5,1.2,79,0.00,CLR,,0.00,WeatherDisplay:10.37,2013-11-05 13:04:00,
2013-11-05 08:09:00,39.2,33.2,30.62,NNE,22,1.8,2.3,79,0.00,CLR,,0.00,WeatherDisplay:10.37,2013-11-05 13:09:00,
2013-11-05 08:14:00,39.9,33.3,30.62,North,0,0.0,1.2,77,0.00,CLR,,0.00,WeatherDisplay:10.37,2013-11-05 13:14:00,
2013-11-05 08:19:00,40.6,34.0,30.62,NNW,338,1.8,3.5,77,0.00,CLR,,0.00,WeatherDisplay:10.37,2013-11-05 13:19:00,
2013-11-05 08:24:00,41.4,34.0,30.62,NW,315,2.0,2.3,75,0.00,CLR,,0.00,WeatherDisplay:10.37,2013-11-05 13:24:00,
2013-11-05 08:29:00,41.7,34.4,30.62,North,0,4.0,4.0,75,0.00,CLR,,0.00,WeatherDisplay:10.37,2013-11-05 13:29:00,
2013-11-05 08:34:00,42.3,34.6,30.62,NW,315,1.4,2.3,74,0.00,CLR,,0.00,WeatherDisplay:10.37,2013-11-05 13:34:00,
2013-11-05 08:39:00,42.8,35.1,30.62,NW,315,2.9,2.9,74,0.00,CLR,,0.00,WeatherDisplay:10.37,2013-11-05 13:39:00,
2013-11-05 08:44:00,43.2,35.1,30.63,WNW,292,0.2,0.0,73,0.00,CLR,,0.00,WeatherDisplay:10.37,2013-11-05 13:44:00,
2013-11-05 08:49:00,43.5,35.4,30.62,South,180,0.0,1.2,73,0.00,CLR,,0.00,WeatherDisplay:10.37,2013-11-05 13:49:00,
2013-11-05 08:54:00,43.9,36.1,30.62,NNW,338,1.6,2.3,74,0.00,CLR,,0.00,WeatherDisplay:10.37,2013-11-05 13:54:00,
2013-11-05 08:59:00,44.2,35.8,30.63,WNW,292,0.0,0.0,72,0.00,CLR,,0.00,WeatherDisplay:10.37,2013-11-05 13:59:00,
2013-11-05 09:04:00,44.4,36.3,30.63,NW,315,0.7,1.2,73,0.00,CLR,,0.00,WeatherDisplay:10.37,2013-11-05 14:04:00,
2013-11-05 09:09:00,44.8,36.3,30.63,NNW,338,1.6,1.6,72,0.00,CLR,,0.00,WeatherDisplay:10.37,2013-11-05 14:09:00,
2013-11-05 09:14:00,45.1,36.6,30.63,NNW,338,1.2,2.3,72,0.00,CLR,,0.00,WeatherDisplay:10.37,2013-11-05 14:14:00,
2013-11-05 09:19:00,45.3,36.5,30.63,WNW,292,0.9,2.3,71,0.00,CLR,,0.00,WeatherDisplay:10.37,2013-11-05 14:19:00,
2013-11-05 09:24:00,45.3,36.1,30.63,North,0,1.8,2.3,70,0.00,CLR,,0.00,WeatherDisplay:10.37,2013-11-05 14:24:00,
2013-11-05 09:29:00,45.5,36.3,30.63,NW,315,1.8,2.3,70,0.00,CLR,,0.00,WeatherDisplay:10.37,2013-11-05 14:29:00,
2013-11-05 09:34:00,45.7,36.5,30.63,NNW,338,1.4,1.4,70,0.00,CLR,,0.00,WeatherDisplay:10.37,2013-11-05 14:34:00,
2013-11-05 09:39:00,45.9,36.6,30.63,NW,315,1.8,2.3,70,0.00,CLR,,0.00,WeatherDisplay:10.37,2013-11-05 14:39:00,
2013-11-05 09:44:00,46.0,36.4,30.63,WSW,248,0.7,1.2,69,0.00,CLR,,0.00,WeatherDisplay:10.37,2013-11-05 14:44:00,
2013-11-05 09:49:00,46.2,36.6,30.63,West,270,0.2,1.2,69,0.00,CLR,,0.00,WeatherDisplay:10.37,2013-11-05 14:49:00,
2013-11-05 09:54:00,46.4,36.8,30.63,NNE,22,2.2,2.3,69,0.00,CLR,,0.00,WeatherDisplay:10.37,2013-11-05 14:54:00,
2013-11-05 09:59:00,46.8,36.8,30.63,NE,45,1.2,2.3,68,0.00,CLR,,0.00,WeatherDisplay:10.37,2013-11-05 14:59:00,
2013-11-05 10:04:00,46.8,36.4,30.63,NNW,338,0.5,2.3,67,0.00,CLR,,0.00,WeatherDisplay:10.37,2013-11-05 15:04:00,
2013-11-05 10:09:00,47.1,37.1,30.63,WSW,248,0.0,0.0,68,0.00,CLR,,0.00,WeatherDisplay:10.37,2013-11-05 15:09:00,
2013-11-05 10:14:00,47.3,37.3,30.63,ENE,68,1.8,2.3,68,0.00,CLR,,0.00,WeatherDisplay:10.37,2013-11-05 15:14:00,
2013-11-05 10:19:00,47.3,36.9,30.63,East,90,1.2,2.3,67,0.00,CLR,,0.00,WeatherDisplay:10.37,2013-11-05 15:19:00,
2013-11-05 10:24:00,47.7,37.6,30.63,SSE,158,0.0,0.0,68,0.00,CLR,,0.00,WeatherDisplay:10.37,2013-11-05 15:24:00,
2013-11-05 10:29:00,48.0,38.0,30.62,ENE,68,0.7,1.2,68,0.00,CLR,,0.00,WeatherDisplay:10.37,2013-11-05 15:29:00,
2013-11-05 10:34:00,48.2,37.8,30.62,NW,315,1.2,2.3,67,0.00,CLR,,0.00,WeatherDisplay:10.37,2013-11-05 15:34:00,
2013-11-05 10:39:00,48.2,37.4,30.62,NNW,338,1.4,1.4,66,0.00,CLR,,0.00,WeatherDisplay:10.37,2013-11-05 15:39:00,
2013-11-05 10:44:00,48.4,37.5,30.62,East,90,0.0,1.2,66,0.00,CLR,,0.00,WeatherDisplay:10.37,2013-11-05 15:44:00,
2013-11-05 10:49:00,48.6,36.5,30.62,NNE,22,1.6,2.3,63,0.00,CLR,,0.00,WeatherDisplay:10.37,2013-11-05 15:49:00,
2013-11-05 10:54:00,48.7,36.7,30.61,NNW,338,1.2,1.2,63,0.00,CLR,,0.00,WeatherDisplay:10.37,2013-11-05 15:54:00,
2013-11-05 10:59:00,48.9,37.7,30.61,SE,135,0.7,0.7,65,0.00,CLR,,0.00,WeatherDisplay:10.37,2013-11-05 15:59:00,
2013-11-05 11:04:00,49.3,38.4,30.61,SE,135,0.5,0.5,66,0.00,CLR,,0.00,WeatherDisplay:10.37,2013-11-05 16:04:00,
2013-11-05 11:09:00,50.0,39.5,30.60,South,180,1.8,2.3,67,0.00,CLR,,0.00,WeatherDisplay:10.37,2013-11-05 16:09:00,
2013-11-05 11:14:00,50.7,40.2,30.60,SE,135,0.7,2.3,67,0.00,CLR,,0.00,WeatherDisplay:10.37,2013-11-05 16:14:00,
2013-11-05 11:19:00,50.7,39.0,30.60,ESE,112,1.4,2.3,64,0.00,CLR,,0.00,WeatherDisplay:10.37,2013-11-05 16:19:00,
2013-11-05 11:24:00,50.4,38.6,30.60,NNE,22,1.6,1.6,64,0.00,CLR,,0.00,WeatherDisplay:10.37,2013-11-05 16:24:00,
2013-11-05 11:29:00,50.5,38.8,30.60,East,90,1.2,1.2,64,0.00,CLR,,0.00,WeatherDisplay:10.37,2013-11-05 16:29:00,
2013-11-05 11:34:00,50.9,38.3,30.59,NNE,22,1.2,2.3,62,0.00,CLR,,0.00,WeatherDisplay:10.37,2013-11-05 16:34:00,
2013-11-05 11:39:00,51.3,37.8,30.59,NNE,22,0.5,1.2,60,0.00,CLR,,0.00,WeatherDisplay:10.37,2013-11-05 16:39:00,
2013-11-05 11:44:00,51.4,38.4,30.60,NE,45,3.6,4.6,61,0.00,CLR,,0.00,WeatherDisplay:10.37,2013-11-05 16:44:00,
2013-11-05 11:49:00,51.1,37.2,30.59,NNE,22,2.6,4.6,59,0.00,CLR,,0.00,WeatherDisplay:10.37,2013-11-05 16:49:00,
2013-11-05 11:54:00,50.7,37.8,30.59,NNE,22,1.8,2.3,61,0.00,CLR,,0.00,WeatherDisplay:10.37,2013-11-05 16:54:00,
2013-11-05 11:59:00,50.7,37.8,30.59,ENE,68,1.8,2.3,61,0.00,CLR,,0.00,WeatherDisplay:10.37,2013-11-05 16:59:00,
2013-11-05 12:04:00,50.7,36.9,30.58,ESE,112,1.8,3.5,59,0.00,CLR,,0.00,WeatherDisplay:10.37,2013-11-05 17:04:00,
2013-11-05 12:09:00,50.7,37.8,30.58,SE,135,1.2,2.3,61,0.00,CLR,,0.00,WeatherDisplay:10.37,2013-11-05 17:09:00,
2013-11-05 12:14:00,50.9,37.9,30.58,North,0,0.5,1.2,61,0.00,CLR,,0.00,WeatherDisplay:10.37,2013-11-05 17:14:00,
2013-11-05 12:19:00,50.9,37.9,30.58,SSW,202,2.2,3.5,61,0.00,CLR,,0.00,WeatherDisplay:10.37,2013-11-05 17:19:00,
2013-11-05 12:24:00,51.3,38.7,30.58,SW,225,3.8,3.8,62,0.00,CLR,,0.00,WeatherDisplay:10.37,2013-11-05 17:24:00,
2013-11-05 12:29:00,51.8,38.3,30.58,SSW,202,2.0,4.6,60,0.00,CLR,,0.00,WeatherDisplay:10.37,2013-11-05 17:29:00,
2013-11-05 12:34:00,52.2,38.7,30.57,SSW,202,3.1,3.1,60,0.00,CLR,,0.00,WeatherDisplay:10.37,2013-11-05 17:34:00,
2013-11-05 12:39:00,52.5,39.0,30.57,South,180,2.0,4.6,60,0.00,CLR,,0.00,WeatherDisplay:10.37,2013-11-05 17:39:00,
2013-11-05 12:44:00,52.5,38.2,30.57,South,180,1.8,4.6,58,0.00,CLR,,0.00,WeatherDisplay:10.37,2013-11-05 17:44:00,
2013-11-05 12:49:00,52.5,37.7,30.57,ESE,112,0.5,4.6,57,0.00,CLR,,0.00,WeatherDisplay:10.37,2013-11-05 17:49:00,
2013-11-05 12:54:00,52.3,38.4,30.57,South,180,2.6,4.6,59,0.00,CLR,,0.00,WeatherDisplay:10.37,2013-11-05 17:54:00,
2013-11-05 12:59:00,52.2,37.8,30.57,South,180,0.7,1.2,58,0.00,CLR,,0.00,WeatherDisplay:10.37,2013-11-05 17:59:00,
2013-11-05 13:04:00,52.2,37.8,30.57,SSW,202,4.0,4.6,58,0.00,CLR,,0.00,WeatherDisplay:10.37,2013-11-05 18:04:00,
2013-11-05 13:09:00,52.3,37.5,30.57,SSW,202,2.4,5.8,57,0.00,CLR,,0.00,WeatherDisplay:10.37,2013-11-05 18:09:00,
2013-11-05 13:14:00,52.3,38.0,30.57,SE,135,1.8,2.3,58,0.00,CLR,,0.00,WeatherDisplay:10.37,2013-11-05 18:14:00,
2013-11-05 13:19:00,52.5,38.2,30.57,SSE,158,3.1,3.5,58,0.00,CLR,,0.00,WeatherDisplay:10.37,2013-11-05 18:19:00,
2013-11-05 13:24:00,52.5,38.2,30.57,SSE,158,2.0,2.3,58,0.00,CLR,,0.00,WeatherDisplay:10.37,2013-11-05 18:24:00,
2013-11-05 13:29:00,52.5,38.2,30.57,ESE,112,1.4,3.5,58,0.00,CLR,,0.00,WeatherDisplay:10.37,2013-11-05 18:29:00,
2013-11-05 13:34:00,52.5,38.6,30.57,South,180,0.7,1.2,59,0.00,CLR,,0.00,WeatherDisplay:10.37,2013-11-05 18:34:00,
2013-11-05 13:39:00,52.2,38.3,30.56,ESE,112,0.9,1.2,59,0.00,CLR,,0.00,WeatherDisplay:10.37,2013-11-05 18:39:00,
2013-11-05 13:44:00,52.2,38.3,30.56,South,180,1.6,2.3,59,0.00,CLR,,0.00,WeatherDisplay:10.37,2013-11-05 18:44:00,
2013-11-05 13:49:00,52.2,37.8,30.56,SE,135,1.2,2.3,58,0.00,CLR,,0.00,WeatherDisplay:10.37,2013-11-05 18:49:00,
2013-11-05 13:54:00,52.0,38.1,30.56,SSE,158,2.0,4.6,59,0.00,CLR,,0.00,WeatherDisplay:10.37,2013-11-05 18:54:00,
2013-11-05 13:59:00,51.8,37.9,30.55,ESE,112,2.4,2.4,59,0.00,CLR,,0.00,WeatherDisplay:10.37,2013-11-05 18:59:00,
2013-11-05 14:04:00,51.4,37.6,30.55,SE,135,2.4,2.4,59,0.00,CLR,,0.00,WeatherDisplay:10.37,2013-11-05 19:04:00,
2013-11-05 14:09:00,51.1,37.7,30.55,SSW,202,1.4,1.4,60,0.00,CLR,,0.00,WeatherDisplay:10.37,2013-11-05 19:09:00,
2013-11-05 14:14:00,50.7,37.8,30.55,South,180,2.9,2.9,61,0.00,CLR,,0.00,WeatherDisplay:10.37,2013-11-05 19:14:00,
2013-11-05 14:19:00,50.7,38.2,30.55,SE,135,2.4,4.6,62,0.00,CLR,,0.00,WeatherDisplay:10.37,2013-11-05 19:19:00,
2013-11-05 14:24:00,50.4,37.8,30.55,South,180,3.1,4.6,62,0.00,CLR,,0.00,WeatherDisplay:10.37,2013-11-05 19:24:00,
2013-11-05 14:29:00,50.0,37.5,30.55,SSW,202,1.8,3.5,62,0.00,CLR,,0.00,WeatherDisplay:10.37,2013-11-05 19:29:00,
2013-11-05 14:34:00,49.8,37.7,30.55,SE,135,1.6,3.5,63,0.00,CLR,,0.00,WeatherDisplay:10.37,2013-11-05 19:34:00,
2013-11-05 14:39:00,49.6,37.1,30.55,SSE,158,0.9,1.2,62,0.00,CLR,,0.00,WeatherDisplay:10.37,2013-11-05 19:39:00,
2013-11-05 14:44:00,49.6,37.6,30.55,SSE,158,3.6,4.6,63,0.00,CLR,,0.00,WeatherDisplay:10.37,2013-11-05 19:44:00,
2013-11-05 14:49:00,49.5,37.0,30.55,ESE,112,1.8,1.8,62,0.00,CLR,,0.00,WeatherDisplay:10.37,2013-11-05 19:49:00,
2013-11-05 14:54:00,49.3,37.2,30.55,South,180,1.8,2.3,63,0.00,CLR,,0.00,WeatherDisplay:10.37,2013-11-05 19:54:00,
2013-11-05 14:59:00,49.3,37.2,30.55,East,90,0.5,0.5,63,0.00,CLR,,0.00,WeatherDisplay:10.37,2013-11-05 19:59:00,
2013-11-05 15:04:00,48.9,36.9,30.54,SSE,158,1.6,2.3,63,0.00,CLR,,0.00,WeatherDisplay:10.37,2013-11-05 20:04:00,
2013-11-05 15:09:00,48.9,37.3,30.54,SE,135,2.4,2.4,64,0.00,CLR,,0.00,WeatherDisplay:10.37,2013-11-05 20:09:00,
2013-11-05 15:14:00,48.7,36.7,30.54,SSE,158,2.4,2.4,63,0.00,CLR,,0.00,WeatherDisplay:10.37,2013-11-05 20:14:00,
2013-11-05 15:19:00,48.7,36.7,30.54,South,180,2.9,2.9,63,0.00,CLR,,0.00,WeatherDisplay:10.37,2013-11-05 20:19:00,
2013-11-05 15:24:00,48.6,36.5,30.54,SSE,158,3.1,3.5,63,0.00,CLR,,0.00,WeatherDisplay:10.37,2013-11-05 20:24:00,
2013-11-05 15:29:00,48.4,36.4,30.54,SSE,158,0.9,2.3,63,0.00,CLR,,0.00,WeatherDisplay:10.37,2013-11-05 20:29:00,
2013-11-05 15:34:00,48.0,36.0,30.54,South,180,3.6,3.6,63,0.00,CLR,,0.00,WeatherDisplay:10.37,2013-11-05 20:34:00,
2013-11-05 15:39:00,47.8,35.8,30.54,SSE,158,1.6,2.3,63,0.00,CLR,,0.00,WeatherDisplay:10.37,2013-11-05 20:39:00,
2013-11-05 15:44:00,47.7,36.1,30.54,SSE,158,0.5,1.2,64,0.00,CLR,,0.00,WeatherDisplay:10.37,2013-11-05 20:44:00,
2013-11-05 15:49:00,47.3,35.7,30.53,South,180,0.5,1.2,64,0.00,CLR,,0.00,WeatherDisplay:10.37,2013-11-05 20:49:00,
2013-11-05 15:54:00,47.1,35.6,30.53,South,180,1.2,1.2,64,0.00,CLR,,0.00,WeatherDisplay:10.37,2013-11-05 20:54:00,
2013-11-05 15:59:00,46.8,35.6,30.53,SSW,202,0.5,0.5,65,0.00,CLR,,0.00,WeatherDisplay:10.37,2013-11-05 20:59:00,
2013-11-05 16:04:00,46.6,35.4,30.53,SSW,202,0.5,0.5,65,0.00,CLR,,0.00,WeatherDisplay:10.37,2013-11-05 21:04:00,
2013-11-05 16:09:00,46.2,35.5,30.53,SSW,202,0.0,0.0,66,0.00,CLR,,0.00,WeatherDisplay:10.37,2013-11-05 21:09:00,
2013-11-05 16:14:00,46.0,35.3,30.53,SSW,202,0.0,0.0,66,0.00,CLR,,0.00,WeatherDisplay:10.37,2013-11-05 21:14:00,
2013-11-05 16:19:00,45.7,35.3,30.53,SSW,202,0.0,0.0,67,0.00,CLR,,0.00,WeatherDisplay:10.37,2013-11-05 21:19:00,
2013-11-05 16:24:00,45.3,35.0,30.53,SSW,202,0.0,0.0,67,0.00,CLR,,0.00,WeatherDisplay:10.37,2013-11-05 21:24:00,
2013-11-05 16:29:00,45.0,35.0,30.53,SSW,202,0.0,0.0,68,0.00,CLR,,0.00,WeatherDisplay:10.37,2013-11-05 21:29:00,
2013-11-05 16:34:00,44.8,34.9,30.53,SSW,202,0.0,0.0,68,0.00,CLR,,0.00,WeatherDisplay:10.37,2013-11-05 21:34:00,
2013-11-05 16:39:00,44.4,34.5,30.53,SSW,202,0.0,0.0,68,0.00,CLR,,0.00,WeatherDisplay:10.37,2013-11-05 21:39:00,
2013-11-05 16:44:00,44.1,34.5,30.53,SSW,202,0.0,0.0,69,0.00,CLR,,0.00,WeatherDisplay:10.37,2013-11-05 21:44:00,
2013-11-05 16:49:00,43.9,35.4,30.53,SSW,202,0.0,0.0,72,0.00,CLR,,0.00,WeatherDisplay:10.37,2013-11-05 21:49:00,
2013-11-05 16:54:00,43.7,34.6,30.53,SSW,202,0.0,0.0,70,0.00,CLR,,0.00,WeatherDisplay:10.37,2013-11-05 21:54:00,
2013-11-05 16:59:00,43.5,34.7,30.54,SSW,202,0.0,0.0,71,0.00,CLR,,0.00,WeatherDisplay:10.37,2013-11-05 21:59:00,
2013-11-05 17:04:00,43.3,35.3,30.53,SSW,202,0.0,0.0,73,0.00,CLR,,0.00,WeatherDisplay:10.37,2013-11-05 22:04:00,
2013-11-05 17:09:00,43.3,35.6,30.53,SSW,202,0.0,0.0,74,0.00,CLR,,0.00,WeatherDisplay:10.37,2013-11-05 22:09:00,
2013-11-05 17:14:00,43.2,35.4,30.53,South,180,0.2,0.2,74,0.00,CLR,,0.00,WeatherDisplay:10.37,2013-11-05 22:14:00,
2013-11-05 17:19:00,42.6,34.9,30.53,East,90,0.0,0.0,74,0.00,CLR,,0.00,WeatherDisplay:10.37,2013-11-05 22:19:00,
2013-11-05 17:24:00,42.4,35.1,30.53,East,90,0.0,0.0,75,0.00,CLR,,0.00,WeatherDisplay:10.37,2013-11-05 22:24:00,
2013-11-05 17:29:00,42.4,35.4,30.53,East,90,0.0,0.0,76,0.00,CLR,,0.00,WeatherDisplay:10.37,2013-11-05 22:29:00,
2013-11-05 17:34:00,42.4,35.4,30.52,East,90,0.0,0.0,76,0.00,CLR,,0.00,WeatherDisplay:10.37,2013-11-05 22:34:00,
2013-11-05 17:39:00,42.1,35.1,30.53,East,90,0.0,0.0,76,0.00,CLR,,0.00,WeatherDisplay:10.37,2013-11-05 22:39:00,
2013-11-05 17:44:00,42.1,35.4,30.53,East,90,0.0,0.0,77,0.00,CLR,,0.00,WeatherDisplay:10.37,2013-11-05 22:44:00,
2013-11-05 17:49:00,41.9,35.2,30.53,East,90,0.0,0.0,77,0.00,CLR,,0.00,WeatherDisplay:10.37,2013-11-05 22:49:00,
2013-11-05 17:54:00,41.5,34.5,30.52,East,90,0.0,0.0,76,0.00,CLR,,0.00,WeatherDisplay:10.37,2013-11-05 22:54:00,
2013-11-05 17:59:00,41.0,34.0,30.53,East,90,0.0,0.0,76,0.00,CLR,,0.00,WeatherDisplay:10.37,2013-11-05 22:59:00,
2013-11-05 18:04:00,40.3,33.0,30.53,East,90,0.0,0.0,75,0.00,CLR,,0.00,WeatherDisplay:10.37,2013-11-05 23:04:00,
2013-11-05 18:09:00,39.9,32.6,30.52,East,90,0.2,0.2,75,0.00,CLR,,0.00,WeatherDisplay:10.37,2013-11-05 23:09:00,
2013-11-05 18:14:00,39.4,32.4,30.52,ENE,68,0.0,0.0,76,0.00,CLR,,0.00,WeatherDisplay:10.37,2013-11-05 23:14:00,
2013-11-05 18:19:00,38.8,31.9,30.52,ENE,68,0.0,0.0,76,0.00,CLR,,0.00,WeatherDisplay:10.37,2013-11-05 23:19:00,
2013-11-05 18:24:00,38.7,32.1,30.52,ENE,68,0.0,0.0,77,0.00,CLR,,0.00,WeatherDisplay:10.37,2013-11-05 23:24:00,
2013-11-05 18:29:00,39.0,33.1,30.52,ENE,68,0.0,0.0,79,0.00,CLR,,0.00,WeatherDisplay:10.37,2013-11-05 23:29:00,
2013-11-05 18:34:00,39.2,33.5,30.52,ENE,68,0.0,0.0,80,0.00,CLR,,0.00,WeatherDisplay:10.37,2013-11-05 23:34:00,
2013-11-05 18:39:00,39.2,33.9,30.52,ENE,68,0.0,0.0,81,0.00,CLR,,0.00,WeatherDisplay:10.37,2013-11-05 23:39:00,
2013-11-05 18:44:00,39.2,34.2,30.52,ENE,68,0.0,0.0,82,0.00,CLR,,0.00,WeatherDisplay:10.37,2013-11-05 23:44:00,
2013-11-05 18:49:00,39.0,34.0,30.52,ENE,68,0.0,0.0,82,0.00,CLR,,0.00,WeatherDisplay:10.37,2013-11-05 23:49:00,
2013-11-05 18:54:00,38.8,33.8,30.52,ENE,68,0.0,0.0,82,0.00,CLR,,0.00,WeatherDisplay:10.37,2013-11-05 23:54:00,
2013-11-05 18:59:00,38.8,33.5,30.52,ENE,68,0.0,0.0,81,0.00,CLR,,0.00,WeatherDisplay:10.37,2013-11-05 23:59:00,
2013-11-05 19:04:00,38.7,33.0,30.52,ENE,68,0.0,0.0,80,0.00,CLR,,0.00,WeatherDisplay:10.37,2013-11-06 00:04:00,
2013-11-05 19:09:00,38.1,32.5,30.52,ENE,68,0.0,0.0,80,0.00,CLR,,0.00,WeatherDisplay:10.37,2013-11-06 00:09:00,
2013-11-05 19:14:00,37.8,32.1,30.52,NE,45,0.0,0.0,80,0.00,CLR,,0.00,WeatherDisplay:10.37,2013-11-06 00:14:00,
2013-11-05 19:19:00,37.8,32.5,30.52,NE,45,0.0,0.0,81,0.00,CLR,,0.00,WeatherDisplay:10.37,2013-11-06 00:19:00,
2013-11-05 19:24:00,37.9,32.6,30.52,NE,45,0.0,0.0,81,0.00,CLR,,0.00,WeatherDisplay:10.37,2013-11-06 00:24:00,
2013-11-05 19:29:00,38.1,32.8,30.52,NE,45,0.0,0.0,81,0.00,CLR,,0.00,WeatherDisplay:10.37,2013-11-06 00:29:00,
2013-11-05 19:34:00,37.9,32.3,30.52,NE,45,0.0,0.0,80,0.00,CLR,,0.00,WeatherDisplay:10.37,2013-11-06 00:34:00,
2013-11-05 19:39:00,37.6,32.0,30.52,NE,45,0.0,0.0,80,0.00,CLR,,0.00,WeatherDisplay:10.37,2013-11-06 00:39:00,
2013-11-05 19:44:00,37.2,31.6,30.52,NE,45,0.0,0.0,80,0.00,CLR,,0.00,WeatherDisplay:10.37,2013-11-06 00:44:00,
2013-11-05 19:49:00,36.9,31.3,30.52,NE,45,0.0,0.0,80,0.00,CLR,,0.00,WeatherDisplay:10.37,2013-11-06 00:49:00,
2013-11-05 19:54:00,36.7,31.1,30.52,NE,45,0.0,0.0,80,0.00,CLR,,0.00,WeatherDisplay:10.37,2013-11-06 00:54:00,
2013-11-05 19:59:00,37.0,31.8,30.52,NNW,338,0.0,0.0,81,0.00,CLR,,0.00,WeatherDisplay:10.37,2013-11-06 00:59:00,
2013-11-05 20:04:00,37.6,32.6,30.52,NNW,338,0.0,0.0,82,0.00,CLR,,0.00,WeatherDisplay:10.37,2013-11-06 01:04:00,
2013-11-05 20:09:00,37.8,32.5,30.52,NNW,338,0.0,0.0,81,0.00,CLR,,0.00,WeatherDisplay:10.37,2013-11-06 01:09:00,
2013-11-05 20:14:00,38.1,33.1,30.51,NNW,338,0.0,0.0,82,0.00,CLR,,0.00,WeatherDisplay:10.37,2013-11-06 01:14:00,
2013-11-05 20:20:00,38.5,33.5,30.51,North,0,0.0,0.0,82,0.00,CLR,,0.00,WeatherDisplay:10.37,2013-11-06 01:20:00,
2013-11-05 20:25:00,38.5,33.2,30.50,North,0,0.0,0.0,81,0.00,CLR,,0.00,WeatherDisplay:10.37,2013-11-06 01:25:00,
2013-11-05 20:30:00,38.5,33.2,30.50,North,0,0.0,0.0,81,0.00,CLR,,0.00,WeatherDisplay:10.37,2013-11-06 01:30:00,
2013-11-05 20:35:00,38.5,32.8,30.51,North,0,0.0,0.0,80,0.00,CLR,,0.00,WeatherDisplay:10.37,2013-11-06 01:35:00,
2013-11-05 20:40:00,37.9,32.3,30.51,North,0,0.0,0.0,80,0.00,CLR,,0.00,WeatherDisplay:10.37,2013-11-06 01:40:00,
2013-11-05 20:45:00,37.2,31.6,30.51,North,0,0.0,0.0,80,0.00,CLR,,0.00,WeatherDisplay:10.37,2013-11-06 01:45:00,
2013-11-05 20:50:00,36.9,31.3,30.51,North,0,0.0,0.0,80,0.00,CLR,,0.00,WeatherDisplay:10.37,2013-11-06 01:50:00,
2013-11-05 20:55:00,36.5,30.9,30.52,North,0,0.0,0.0,80,0.00,CLR,,0.00,WeatherDisplay:10.37,2013-11-06 01:55:00,
2013-11-05 21:00:00,36.3,30.7,30.52,North,0,0.0,0.0,80,0.00,CLR,,0.00,WeatherDisplay:10.37,2013-11-06 02:00:00,
2013-11-05 21:05:00,36.1,30.6,30.52,WNW,292,0.0,0.0,80,0.00,CLR,,0.00,WeatherDisplay:10.37,2013-11-06 02:05:00,
2013-11-05 21:10:00,36.0,30.4,30.52,WNW,292,0.0,0.0,80,0.00,CLR,,0.00,WeatherDisplay:10.37,2013-11-06 02:10:00,
2013-11-05 21:15:00,36.0,30.7,30.52,West,270,0.0,0.0,81,0.00,CLR,,0.00,WeatherDisplay:10.37,2013-11-06 02:15:00,
2013-11-05 21:20:00,35.8,30.5,30.51,West,270,0.0,0.0,81,0.00,CLR,,0.00,WeatherDisplay:10.37,2013-11-06 02:20:00,
2013-11-05 21:25:00,35.6,30.3,30.51,NNE,22,0.0,0.0,81,0.00,CLR,,0.00,WeatherDisplay:10.37,2013-11-06 02:25:00,
2013-11-05 21:30:00,35.6,30.3,30.51,NNE,22,0.0,0.0,81,0.00,CLR,,0.00,WeatherDisplay:10.37,2013-11-06 02:30:00,
2013-11-05 21:35:00,35.6,30.3,30.51,NNE,22,0.0,0.0,81,0.00,CLR,,0.00,WeatherDisplay:10.37,2013-11-06 02:35:00,
2013-11-05 21:40:00,35.4,30.2,30.51,NNE,22,0.0,0.0,81,0.00,CLR,,0.00,WeatherDisplay:10.37,2013-11-06 02:40:00,
2013-11-05 21:45:00,35.4,30.5,30.51,NNE,22,0.0,0.0,82,0.00,CLR,,0.00,WeatherDisplay:10.37,2013-11-06 02:45:00,
2013-11-05 21:50:00,35.4,30.5,30.50,NNE,22,0.0,0.0,82,0.00,CLR,,0.00,WeatherDisplay:10.37,2013-11-06 02:50:00,
2013-11-05 21:55:00,35.6,30.6,30.50,NNE,22,0.0,0.0,82,0.00,CLR,,0.00,WeatherDisplay:10.37,2013-11-06 02:55:00,
2013-11-05 22:00:00,35.6,30.6,30.50,NNE,22,0.0,0.0,82,0.00,CLR,,0.00,WeatherDisplay:10.37,2013-11-06 03:00:00,
2013-11-05 22:05:00,35.6,30.6,30.49,NNE,22,0.0,0.0,82,0.00,CLR,,0.00,WeatherDisplay:10.37,2013-11-06 03:05:00,
2013-11-05 22:10:00,35.6,30.6,30.49,NNE,22,0.0,0.0,82,0.00,CLR,,0.00,WeatherDisplay:10.37,2013-11-06 03:10:00,
2013-11-05 22:15:00,35.6,30.6,30.49,NNE,22,0.0,0.0,82,0.00,CLR,,0.00,WeatherDisplay:10.37,2013-11-06 03:15:00,
2013-11-05 22:20:00,35.6,30.6,30.49,NNE,22,0.0,0.0,82,0.00,CLR,,0.00,WeatherDisplay:10.37,2013-11-06 03:20:00,
2013-11-05 22:25:00,35.6,30.6,30.49,NNE,22,0.0,0.0,82,0.00,CLR,,0.00,WeatherDisplay:10.37,2013-11-06 03:25:00,
2013-11-05 22:30:00,35.6,30.6,30.49,NNE,22,0.0,0.0,82,0.00,CLR,,0.00,WeatherDisplay:10.37,2013-11-06 03:30:00,
2013-11-05 22:35:00,35.6,30.9,30.48,NNE,22,0.0,0.0,83,0.00,CLR,,0.00,WeatherDisplay:10.37,2013-11-06 03:35:00,
2013-11-05 22:40:00,35.6,30.9,30.48,NNE,22,0.0,0.0,83,0.00,CLR,,0.00,WeatherDisplay:10.37,2013-11-06 03:40:00,
2013-11-05 22:45:00,35.6,30.9,30.48,NNE,22,0.0,0.0,83,0.00,CLR,,0.00,WeatherDisplay:10.37,2013-11-06 03:45:00,
2013-11-05 22:50:00,35.6,30.9,30.47,NNE,22,0.0,0.0,83,0.00,CLR,,0.00,WeatherDisplay:10.37,2013-11-06 03:50:00,
2013-11-05 22:55:00,35.8,31.1,30.47,NNE,22,0.0,0.0,83,0.00,CLR,,0.00,WeatherDisplay:10.37,2013-11-06 03:55:00,
2013-11-05 23:00:00,35.6,30.9,30.47,NNE,22,0.0,0.0,83,0.00,CLR,,0.00,WeatherDisplay:10.37,2013-11-06 04:00:00,
2013-11-05 23:05:00,35.6,30.9,30.47,NNE,22,0.0,0.0,83,0.00,CLR,,0.00,WeatherDisplay:10.37,2013-11-06 04:05:00,
2013-11-05 23:10:00,35.6,30.9,30.47,NNE,22,0.0,0.0,83,0.00,CLR,,0.00,WeatherDisplay:10.37,2013-11-06 04:10:00,
2013-11-05 23:15:00,35.6,30.9,30.47,NNE,22,0.0,0.0,83,0.00,CLR,,0.00,WeatherDisplay:10.37,2013-11-06 04:15:00,
2013-11-05 23:20:00,35.8,31.1,30.47,NNE,22,0.0,0.0,83,0.00,CLR,,0.00,WeatherDisplay:10.37,2013-11-06 04:20:00,
2013-11-05 23:25:00,35.8,31.1,30.48,NNE,22,0.0,0.0,83,0.00,CLR,,0.00,WeatherDisplay:10.37,2013-11-06 04:25:00,
2013-11-05 23:30:00,36.0,31.3,30.49,NNE,22,0.0,0.0,83,0.00,CLR,,0.00,WeatherDisplay:10.37,2013-11-06 04:30:00,
2013-11-05 23:35:00,36.0,31.3,30.49,NNE,22,0.0,0.0,83,0.00,CLR,,0.00,WeatherDisplay:10.37,2013-11-06 04:35:00,
2013-11-05 23:40:00,36.1,31.5,30.48,NNE,22,0.0,0.0,83,0.00,CLR,,0.00,WeatherDisplay:10.37,2013-11-06 04:40:00,
2013-11-05 23:45:00,36.1,31.5,30.48,NNE,22,0.0,0.0,83,0.00,CLR,,0.00,WeatherDisplay:10.37,2013-11-06 04:45:00,
2013-11-05 23:50:00,36.3,31.9,30.48,NNE,22,0.0,0.0,84,0.00,CLR,,0.00,WeatherDisplay:10.37,2013-11-06 04:50:00,
2013-11-05 23:55:00,36.3,31.9,30.48,NNE,22,0.0,0.0,84,0.00,CLR,,0.00,WeatherDisplay:10.37,2013-11-06 04:55:00,